Location: Bushey
(51.6333°N, 0.3667°W)
Time: 23:47:19
(UTC+00:00)

Cosmos 2366 rocket - Pass Details

Date: 03 March 2021
Orbit: 955 x 997 km, 82.9° (Epoch: 11 April)

Event Time Altitude Azimuth Distance (km) Brightness Sun altitude
Rises 20:06:53 0° 189° (S) 3,685 6.9 -22.5°
Reaches altitude 10° 20:09:22 10° 190° (S) 2,745 6.3 -22.8°
Maximum altitude 20:15:42 85° 279° (W) 1,006 4.0 -23.7°
Drops below altitude 10° 20:22:07 10° 9° (N) 2,779 6.5 -24.7°
Sets 20:24:40 0° 11° (N) 3,733 7.2 -25.0°
